Time,TemperatureF,DewpointF,PressureIn,WindDirection,WindDirectionDegrees,WindSpeedMPH,WindSpeedGustMPH,Humidity,HourlyPrecipIn,Conditions,Clouds,dailyrainin,SoftwareType,DateUTC
2013-07-05 00:01:00,61.4,48.3,29.83,WNW,298,0.0,0.0,62,0.00,,,0.00,WeatherCatV1.11B39,2013-07-05 06:01:00,
2013-07-05 00:06:00,61.4,49.1,29.84,WNW,298,0.0,0.0,64,0.00,,,0.00,WeatherCatV1.11B39,2013-07-05 06:06:00,
2013-07-05 00:11:00,61.3,49.0,29.85,WNW,298,0.0,0.0,64,0.00,,,0.00,WeatherCatV1.11B39,2013-07-05 06:11:00,
2013-07-05 00:16:00,61.3,50.6,29.85,WNW,298,0.0,0.0,68,0.00,,,0.00,WeatherCatV1.11B39,2013-07-05 06:16:00,
2013-07-05 00:21:00,61.4,49.9,29.84,WNW,298,0.0,0.0,66,0.00,,,0.00,WeatherCatV1.11B39,2013-07-05 06:21:00,
2013-07-05 00:26:00,61.5,49.2,29.84,WNW,284,0.0,7.0,64,0.00,,,0.00,WeatherCatV1.11B39,2013-07-05 06:26:00,
2013-07-05 00:31:00,62.3,50.8,29.84,SSE,167,0.0,3.0,66,0.00,,,0.00,WeatherCatV1.11B39,2013-07-05 06:31:00,
2013-07-05 00:36:00,62.9,50.9,29.85,SW,219,0.0,2.0,65,0.00,,,0.00,WeatherCatV1.11B39,2013-07-05 06:36:00,
2013-07-05 00:41:00,63.1,49.4,29.85,SW,219,0.0,0.0,61,0.00,,,0.00,WeatherCatV1.11B39,2013-07-05 06:41:00,
2013-07-05 00:46:00,63.8,51.8,29.85,NNE,15,7.0,9.0,65,0.00,,,0.00,WeatherCatV1.11B39,2013-07-05 06:46:00,
2013-07-05 00:51:00,64.7,52.7,29.85,North,9,0.0,3.0,65,0.00,,,0.00,WeatherCatV1.11B39,2013-07-05 06:51:00,
2013-07-05 00:56:00,65.3,51.5,29.85,WNW,293,3.0,6.0,61,0.00,,,0.00,WeatherCatV1.11B39,2013-07-05 06:56:00,
2013-07-05 01:01:00,65.9,54.6,29.85,SSW,202,2.0,5.0,67,0.00,,,0.00,WeatherCatV1.11B39,2013-07-05 07:01:00,
2013-07-05 01:06:00,66.1,52.3,29.86,SSE,155,0.0,2.0,61,0.00,,,0.00,WeatherCatV1.11B39,2013-07-05 07:06:00,
2013-07-05 01:11:00,66.1,50.4,29.87,West,272,0.0,4.0,57,0.00,,,0.00,WeatherCatV1.11B39,2013-07-05 07:11:00,
2013-07-05 01:16:00,66.4,50.2,29.87,WNW,296,0.0,6.0,56,0.00,,,0.00,WeatherCatV1.11B39,2013-07-05 07:16:00,
2013-07-05 01:21:00,66.8,52.0,29.87,WNW,282,1.0,3.0,59,0.00,,,0.00,WeatherCatV1.11B39,2013-07-05 07:21:00,
2013-07-05 01:26:00,66.9,51.2,29.87,WNW,282,0.0,2.0,57,0.00,,,0.00,WeatherCatV1.11B39,2013-07-05 07:26:00,
2013-07-05 01:31:00,66.9,50.2,29.87,NNW,329,1.0,3.0,55,0.00,,,0.00,WeatherCatV1.11B39,2013-07-05 07:31:00,
2013-07-05 01:36:00,67.0,51.3,29.88,NW,321,2.0,3.0,57,0.00,,,0.00,WeatherCatV1.11B39,2013-07-05 07:36:00,
2013-07-05 01:41:00,67.1,52.3,29.88,NW,319,0.0,0.0,59,0.00,,,0.00,WeatherCatV1.11B39,2013-07-05 07:41:00,
2013-07-05 01:46:00,66.9,53.0,29.88,NW,318,0.0,0.0,61,0.00,,,0.00,WeatherCatV1.11B39,2013-07-05 07:46:00,
2013-07-05 01:51:00,66.5,51.7,29.87,NW,318,0.0,0.0,59,0.00,,,0.00,WeatherCatV1.11B39,2013-07-05 07:51:00,
2013-07-05 01:56:00,66.2,51.0,29.87,NW,318,0.0,0.0,58,0.00,,,0.00,WeatherCatV1.11B39,2013-07-05 07:56:00,
2013-07-05 02:01:00,65.9,50.2,29.87,NW,318,0.0,0.0,57,0.00,,,0.00,WeatherCatV1.11B39,2013-07-05 08:01:00,
2013-07-05 02:06:00,65.6,51.3,29.87,NW,318,0.0,0.0,60,0.00,,,0.00,WeatherCatV1.11B39,2013-07-05 08:06:00,
2013-07-05 02:11:00,65.3,51.5,29.86,NW,318,0.0,0.0,61,0.00,,,0.00,WeatherCatV1.11B39,2013-07-05 08:11:00,
2013-07-05 02:16:00,64.9,52.0,29.86,NW,318,0.0,1.0,63,0.00,,,0.00,WeatherCatV1.11B39,2013-07-05 08:16:00,
2013-07-05 02:21:00,64.4,53.2,29.86,NW,319,1.0,2.0,67,0.00,,,0.00,WeatherCatV1.11B39,2013-07-05 08:21:00,
2013-07-05 02:26:00,64.1,52.5,29.85,NW,319,0.0,2.0,66,0.00,,,0.00,WeatherCatV1.11B39,2013-07-05 08:26:00,
2013-07-05 02:31:00,64.1,52.1,29.84,NW,319,0.0,2.0,65,0.00,,,0.00,WeatherCatV1.11B39,2013-07-05 08:31:00,
2013-07-05 02:36:00,64.0,52.4,29.84,SSE,156,0.0,1.0,66,0.00,,,0.00,WeatherCatV1.11B39,2013-07-05 08:36:00,
2013-07-05 02:41:00,64.0,51.6,29.85,SW,215,1.0,2.0,64,0.00,,,0.00,WeatherCatV1.11B39,2013-07-05 08:41:00,
2013-07-05 02:46:00,64.2,52.2,29.85,West,267,1.0,2.0,65,0.00,,,0.00,WeatherCatV1.11B39,2013-07-05 08:46:00,
2013-07-05 02:51:00,64.3,51.9,29.85,West,267,0.0,0.0,64,0.00,,,0.00,WeatherCatV1.11B39,2013-07-05 08:51:00,
2013-07-05 02:53:00,64.3,52.3,29.85,West,267,0.0,0.0,65,0.00,,,0.00,WeatherCatV1.11B39,2013-07-05 08:53:00,
2013-07-05 02:58:00,64.3,53.5,29.85,West,269,0.0,0.0,68,0.00,,,0.00,WeatherCatV1.11B39,2013-07-05 08:58:00,
2013-07-05 03:01:00,64.2,52.6,29.85,West,269,0.0,1.0,66,0.00,,,0.00,WeatherCatV1.11B39,2013-07-05 09:01:00,
2013-07-05 03:06:00,64.0,52.4,29.85,West,269,0.0,0.0,66,0.00,,,0.00,WeatherCatV1.11B39,2013-07-05 09:06:00,
2013-07-05 03:11:00,63.8,52.2,29.85,West,269,0.0,1.0,66,0.00,,,0.00,WeatherCatV1.11B39,2013-07-05 09:11:00,
2013-07-05 03:16:00,63.5,51.9,29.85,West,269,0.0,1.0,66,0.00,,,0.00,WeatherCatV1.11B39,2013-07-05 09:16:00,
2013-07-05 03:21:00,63.3,51.7,29.85,West,269,0.0,0.0,66,0.00,,,0.00,WeatherCatV1.11B39,2013-07-05 09:21:00,
2013-07-05 03:26:00,63.0,52.7,29.84,West,269,0.0,1.0,69,0.00,,,0.00,WeatherCatV1.11B39,2013-07-05 09:26:00,
2013-07-05 03:31:00,62.7,52.0,29.84,West,269,0.0,0.0,68,0.00,,,0.00,WeatherCatV1.11B39,2013-07-05 09:31:00,
2013-07-05 03:36:00,62.5,51.4,29.84,West,269,1.0,1.0,67,0.00,,,0.00,WeatherCatV1.11B39,2013-07-05 09:36:00,
2013-07-05 03:40:00,62.3,51.6,29.84,West,269,0.0,0.0,68,0.00,,,0.00,WeatherCatV1.11B39,2013-07-05 09:40:00,
2013-07-05 03:45:00,62.1,52.2,29.84,West,269,0.0,0.0,70,0.00,,,0.00,WeatherCatV1.11B39,2013-07-05 09:45:00,
2013-07-05 03:50:00,61.8,51.9,29.84,West,269,0.0,0.0,70,0.00,,,0.00,WeatherCatV1.11B39,2013-07-05 09:50:00,
2013-07-05 03:55:00,61.6,51.7,29.84,West,269,0.0,0.0,70,0.00,,,0.00,WeatherCatV1.11B39,2013-07-05 09:55:00,
2013-07-05 04:00:00,61.3,51.0,29.84,West,269,0.0,0.0,69,0.00,,,0.00,WeatherCatV1.11B39,2013-07-05 10:00:00,
2013-07-05 04:05:00,61.1,52.7,29.84,West,269,0.0,0.0,74,0.00,,,0.00,WeatherCatV1.11B39,2013-07-05 10:05:00,
2013-07-05 04:10:00,60.8,51.3,29.84,West,269,0.0,0.0,71,0.00,,,0.00,WeatherCatV1.11B39,2013-07-05 10:10:00,
2013-07-05 04:15:00,60.5,51.4,29.84,West,269,0.0,0.0,72,0.00,,,0.00,WeatherCatV1.11B39,2013-07-05 10:15:00,
2013-07-05 04:20:00,60.2,51.9,29.84,West,269,0.0,0.0,74,0.00,,,0.00,WeatherCatV1.11B39,2013-07-05 10:20:00,
2013-07-05 04:25:00,59.9,51.6,29.84,West,269,0.0,0.0,74,0.00,,,0.00,WeatherCatV1.11B39,2013-07-05 10:25:00,
2013-07-05 04:30:00,59.6,52.4,29.84,West,269,0.0,0.0,77,0.00,,,0.00,WeatherCatV1.11B39,2013-07-05 10:30:00,
2013-07-05 04:35:00,59.4,51.5,29.84,West,269,0.0,0.0,75,0.00,,,0.00,WeatherCatV1.11B39,2013-07-05 10:35:00,
2013-07-05 04:40:00,59.2,51.3,29.84,West,269,0.0,0.0,75,0.00,,,0.00,WeatherCatV1.11B39,2013-07-05 10:40:00,
2013-07-05 04:45:00,59.0,51.8,29.84,West,269,0.0,0.0,77,0.00,,,0.00,WeatherCatV1.11B39,2013-07-05 10:45:00,
2013-07-05 04:50:00,59.0,52.1,29.85,West,269,0.0,0.0,78,0.00,,,0.00,WeatherCatV1.11B39,2013-07-05 10:50:00,
2013-07-05 04:55:00,58.8,52.6,29.84,West,269,0.0,0.0,80,0.00,,,0.00,WeatherCatV1.11B39,2013-07-05 10:55:00,
2013-07-05 05:00:00,58.5,52.7,29.85,West,269,0.0,0.0,81,0.00,,,0.00,WeatherCatV1.11B39,2013-07-05 11:00:00,
2013-07-05 05:05:00,58.2,51.4,29.84,West,269,0.0,0.0,78,0.00,,,0.00,WeatherCatV1.11B39,2013-07-05 11:05:00,
2013-07-05 05:11:00,58.0,51.2,29.84,West,269,0.0,0.0,78,0.00,,,0.00,WeatherCatV1.11B39,2013-07-05 11:11:00,
2013-07-05 05:16:00,57.8,51.7,29.85,West,269,0.0,0.0,80,0.00,,,0.00,WeatherCatV1.11B39,2013-07-05 11:16:00,
2013-07-05 05:21:00,57.6,51.5,29.84,West,269,0.0,0.0,80,0.00,,,0.00,WeatherCatV1.11B39,2013-07-05 11:21:00,
2013-07-05 05:26:00,57.4,51.3,29.84,West,269,0.0,0.0,80,0.00,,,0.00,WeatherCatV1.11B39,2013-07-05 11:26:00,
2013-07-05 05:31:00,57.2,51.1,29.84,West,269,0.0,0.0,80,0.00,,,0.00,WeatherCatV1.11B39,2013-07-05 11:31:00,
2013-07-05 05:36:00,57.1,51.0,29.84,West,269,0.0,0.0,80,0.00,,,0.00,WeatherCatV1.11B39,2013-07-05 11:36:00,
2013-07-05 05:41:00,56.8,51.4,29.85,West,269,0.0,0.0,82,0.00,,,0.00,WeatherCatV1.11B39,2013-07-05 11:41:00,
2013-07-05 05:46:00,56.6,51.5,29.85,West,269,0.0,0.0,83,0.00,,,0.00,WeatherCatV1.11B39,2013-07-05 11:46:00,
2013-07-05 05:51:00,56.5,50.7,29.85,West,269,0.0,0.0,81,0.00,,,0.00,WeatherCatV1.11B39,2013-07-05 11:51:00,
2013-07-05 05:56:00,56.3,50.9,29.85,West,269,0.0,0.0,82,0.00,,,0.00,WeatherCatV1.11B39,2013-07-05 11:56:00,
2013-07-05 06:01:00,56.2,50.8,29.85,West,269,0.0,0.0,82,0.00,,,0.00,WeatherCatV1.11B39,2013-07-05 12:01:00,
2013-07-05 06:06:00,56.0,50.9,29.85,West,269,0.0,0.0,83,0.00,,,0.00,WeatherCatV1.11B39,2013-07-05 12:06:00,
2013-07-05 06:11:00,55.9,51.1,29.85,West,269,0.0,0.0,84,0.00,,,0.00,WeatherCatV1.11B39,2013-07-05 12:11:00,
2013-07-05 06:16:00,55.6,50.8,29.85,West,269,0.0,0.0,84,0.00,,,0.00,WeatherCatV1.11B39,2013-07-05 12:16:00,
2013-07-05 06:21:00,55.4,50.6,29.85,West,269,0.0,0.0,84,0.00,,,0.00,WeatherCatV1.11B39,2013-07-05 12:21:00,
2013-07-05 06:26:00,55.2,50.8,29.85,West,269,0.0,0.0,85,0.00,,,0.00,WeatherCatV1.11B39,2013-07-05 12:26:00,
2013-07-05 06:31:00,55.2,51.1,29.86,West,269,0.0,0.0,86,0.00,,,0.00,WeatherCatV1.11B39,2013-07-05 12:31:00,
2013-07-05 06:36:00,55.3,51.2,29.86,West,269,0.0,0.0,86,0.00,,,0.00,WeatherCatV1.11B39,2013-07-05 12:36:00,
2013-07-05 06:41:00,55.4,51.3,29.86,West,269,0.0,0.0,86,0.00,,,0.00,WeatherCatV1.11B39,2013-07-05 12:41:00,
2013-07-05 06:46:00,55.8,51.7,29.86,West,269,0.0,0.0,86,0.00,,,0.00,WeatherCatV1.11B39,2013-07-05 12:46:00,
2013-07-05 06:51:00,56.3,51.5,29.87,West,269,0.0,0.0,84,0.00,,,0.00,WeatherCatV1.11B39,2013-07-05 12:51:00,
2013-07-05 06:56:00,56.7,51.9,29.86,West,269,0.0,0.0,84,0.00,,,0.00,WeatherCatV1.11B39,2013-07-05 12:56:00,
2013-07-05 07:01:00,57.1,52.0,29.86,West,269,0.0,0.0,83,0.00,,,0.00,WeatherCatV1.11B39,2013-07-05 13:01:00,
2013-07-05 07:06:00,57.4,51.6,29.86,West,269,0.0,0.0,81,0.00,,,0.00,WeatherCatV1.11B39,2013-07-05 13:06:00,
2013-07-05 07:11:00,57.7,51.9,29.86,West,269,0.0,0.0,81,0.00,,,0.00,WeatherCatV1.11B39,2013-07-05 13:11:00,
2013-07-05 07:16:00,58.0,52.2,29.87,West,269,0.0,0.0,81,0.00,,,0.00,WeatherCatV1.11B39,2013-07-05 13:16:00,
2013-07-05 07:21:00,58.4,52.3,29.87,West,269,0.0,0.0,80,0.00,,,0.00,WeatherCatV1.11B39,2013-07-05 13:21:00,
2013-07-05 07:26:00,58.8,52.6,29.88,West,269,0.0,0.0,80,0.00,,,0.00,WeatherCatV1.11B39,2013-07-05 13:26:00,
2013-07-05 07:31:00,59.1,52.9,29.87,West,269,0.0,0.0,80,0.00,,,0.00,WeatherCatV1.11B39,2013-07-05 13:31:00,
2013-07-05 07:36:00,59.2,53.4,29.87,West,269,0.0,0.0,81,0.00,,,0.00,WeatherCatV1.11B39,2013-07-05 13:36:00,
2013-07-05 07:41:00,59.2,53.7,29.87,West,269,0.0,0.0,82,0.00,,,0.00,WeatherCatV1.11B39,2013-07-05 13:41:00,
2013-07-05 07:46:00,59.1,53.6,29.87,West,269,0.0,0.0,82,0.00,,,0.00,WeatherCatV1.11B39,2013-07-05 13:46:00,
2013-07-05 07:51:00,58.9,53.7,29.88,West,269,0.0,0.0,83,0.00,,,0.00,WeatherCatV1.11B39,2013-07-05 13:51:00,
2013-07-05 07:56:00,58.7,54.2,29.90,West,269,1.0,3.0,85,0.00,,,0.00,WeatherCatV1.11B39,2013-07-05 13:56:00,
2013-07-05 08:01:00,58.7,54.2,29.90,West,269,0.0,1.0,85,0.00,,,0.00,WeatherCatV1.11B39,2013-07-05 14:01:00,
2013-07-05 08:06:00,58.7,53.5,29.91,NW,315,3.0,6.0,83,0.00,,,0.00,WeatherCatV1.11B39,2013-07-05 14:06:00,
2013-07-05 08:11:00,59.0,53.5,29.90,WSW,257,0.0,1.0,82,0.00,,,0.01,WeatherCatV1.11B39,2013-07-05 14:11:00,
2013-07-05 08:16:00,59.3,53.8,29.90,WSW,257,0.0,2.0,82,0.00,,,0.01,WeatherCatV1.11B39,2013-07-05 14:16:00,
2013-07-05 08:21:00,59.6,54.1,29.89,North,5,0.0,2.0,82,0.00,,,0.01,WeatherCatV1.11B39,2013-07-05 14:21:00,
2013-07-05 08:26:00,59.9,54.1,29.89,North,5,0.0,1.0,81,0.00,,,0.01,WeatherCatV1.11B39,2013-07-05 14:26:00,
2013-07-05 08:31:00,60.2,54.0,29.90,North,5,0.0,1.0,80,0.00,,,0.01,WeatherCatV1.11B39,2013-07-05 14:31:00,
2013-07-05 08:36:00,60.5,54.6,29.89,North,5,0.0,1.0,81,0.00,,,0.01,WeatherCatV1.11B39,2013-07-05 14:36:00,
2013-07-05 08:41:00,61.0,55.5,29.89,North,5,0.0,0.0,82,0.00,,,0.01,WeatherCatV1.11B39,2013-07-05 14:41:00,
2013-07-05 08:46:00,61.3,56.1,29.88,North,11,1.0,1.0,83,0.00,,,0.01,WeatherCatV1.11B39,2013-07-05 14:46:00,
2013-07-05 08:51:00,61.6,54.7,29.87,North,11,0.0,1.0,78,0.00,,,0.01,WeatherCatV1.11B39,2013-07-05 14:51:00,
2013-07-05 08:56:00,62.1,55.9,29.88,North,11,0.0,0.0,80,0.00,,,0.01,WeatherCatV1.11B39,2013-07-05 14:56:00,
2013-07-05 09:01:00,62.6,55.3,29.87,North,11,0.0,0.0,77,0.00,,,0.01,WeatherCatV1.11B39,2013-07-05 15:01:00,
2013-07-05 09:06:00,63.1,55.0,29.87,NNE,12,0.0,0.0,75,0.00,,,0.01,WeatherCatV1.11B39,2013-07-05 15:06:00,
2013-07-05 09:11:00,63.2,55.9,29.87,West,267,0.0,2.0,77,0.00,,,0.01,WeatherCatV1.11B39,2013-07-05 15:11:00,
2013-07-05 09:16:00,63.5,56.2,29.87,West,266,1.0,1.0,77,0.00,,,0.01,WeatherCatV1.11B39,2013-07-05 15:16:00,
2013-07-05 09:21:00,63.7,56.0,29.87,SSE,163,0.0,4.0,76,0.00,,,0.01,WeatherCatV1.11B39,2013-07-05 15:21:00,
2013-07-05 09:26:00,64.0,56.6,29.87,SSE,163,0.0,0.0,77,0.00,,,0.01,WeatherCatV1.11B39,2013-07-05 15:26:00,
2013-07-05 09:31:00,64.3,56.9,29.86,SSE,162,0.0,1.0,77,0.00,,,0.01,WeatherCatV1.11B39,2013-07-05 15:31:00,
2013-07-05 09:36:00,64.6,55.4,29.86,SSE,163,0.0,3.0,72,0.00,,,0.01,WeatherCatV1.11B39,2013-07-05 15:36:00,
2013-07-05 09:41:00,64.8,55.2,29.85,SSE,163,0.0,1.0,71,0.00,,,0.01,WeatherCatV1.11B39,2013-07-05 15:41:00,
2013-07-05 09:46:00,65.0,56.5,29.85,SSE,163,0.0,0.0,74,0.00,,,0.01,WeatherCatV1.11B39,2013-07-05 15:46:00,
2013-07-05 09:51:00,65.2,56.3,29.86,SSE,163,0.0,0.0,73,0.00,,,0.01,WeatherCatV1.11B39,2013-07-05 15:51:00,
2013-07-05 09:56:00,65.5,57.4,29.85,SSE,163,0.0,0.0,75,0.00,,,0.01,WeatherCatV1.11B39,2013-07-05 15:56:00,
2013-07-05 10:01:00,65.8,56.1,29.85,SSE,163,0.0,0.0,71,0.00,,,0.01,WeatherCatV1.11B39,2013-07-05 16:01:00,
2013-07-05 10:06:00,66.3,55.8,29.85,SSE,163,0.0,1.0,69,0.00,,,0.01,WeatherCatV1.11B39,2013-07-05 16:06:00,
2013-07-05 10:11:00,67.0,56.9,29.85,SSE,163,0.0,1.0,70,0.00,,,0.01,WeatherCatV1.11B39,2013-07-05 16:11:00,
2013-07-05 10:16:00,67.4,55.2,29.84,SSE,163,0.0,1.0,65,0.00,,,0.01,WeatherCatV1.11B39,2013-07-05 16:16:00,
2013-07-05 10:21:00,67.7,55.5,29.84,SSE,163,0.0,0.0,65,0.00,,,0.01,WeatherCatV1.11B39,2013-07-05 16:21:00,
2013-07-05 10:26:00,68.0,55.8,29.84,SSE,163,0.0,0.0,65,0.00,,,0.01,WeatherCatV1.11B39,2013-07-05 16:26:00,
2013-07-05 10:31:00,68.4,55.3,29.83,SSE,163,0.0,0.0,63,0.00,,,0.01,WeatherCatV1.11B39,2013-07-05 16:31:00,
2013-07-05 10:36:00,68.9,56.6,29.83,SSE,163,0.0,0.0,65,0.00,,,0.01,WeatherCatV1.11B39,2013-07-05 16:36:00,
2013-07-05 10:41:00,69.6,55.1,29.83,SSE,163,0.0,0.0,60,0.00,,,0.01,WeatherCatV1.11B39,2013-07-05 16:41:00,
2013-07-05 10:46:00,69.9,55.4,29.83,SSE,163,0.0,0.0,60,0.00,,,0.01,WeatherCatV1.11B39,2013-07-05 16:46:00,
2013-07-05 10:51:00,70.2,55.7,29.83,SSE,166,1.0,1.0,60,0.00,,,0.01,WeatherCatV1.11B39,2013-07-05 16:51:00,
2013-07-05 10:56:00,70.6,55.6,29.83,SSE,166,0.0,0.0,59,0.00,,,0.01,WeatherCatV1.11B39,2013-07-05 16:56:00,
2013-07-05 11:01:00,71.2,57.5,29.83,SSE,166,0.0,1.0,62,0.00,,,0.01,WeatherCatV1.11B39,2013-07-05 17:01:00,
2013-07-05 11:06:00,71.7,56.6,29.83,SSE,166,3.0,3.0,59,0.00,,,0.01,WeatherCatV1.11B39,2013-07-05 17:06:00,
2013-07-05 11:11:00,72.2,56.1,29.82,SSE,167,0.0,0.0,57,0.00,,,0.01,WeatherCatV1.11B39,2013-07-05 17:11:00,
2013-07-05 11:16:00,72.5,55.9,29.82,SSE,167,0.0,0.0,56,0.00,,,0.01,WeatherCatV1.11B39,2013-07-05 17:16:00,
2013-07-05 11:21:00,72.5,56.4,29.82,SSE,167,0.0,0.0,57,0.00,,,0.01,WeatherCatV1.11B39,2013-07-05 17:21:00,
2013-07-05 11:26:00,72.6,58.4,29.82,SSE,167,0.0,0.0,61,0.00,,,0.01,WeatherCatV1.11B39,2013-07-05 17:26:00,
2013-07-05 11:31:00,72.5,57.3,29.82,SSE,167,0.0,0.0,59,0.00,,,0.01,WeatherCatV1.11B39,2013-07-05 17:31:00,
2013-07-05 11:36:00,72.6,57.4,29.83,SSE,167,0.0,0.0,59,0.00,,,0.01,WeatherCatV1.11B39,2013-07-05 17:36:00,
2013-07-05 11:41:00,72.3,57.6,29.82,SSE,167,0.0,0.0,60,0.00,,,0.01,WeatherCatV1.11B39,2013-07-05 17:41:00,
2013-07-05 11:46:00,71.7,58.0,29.82,SSE,167,0.0,0.0,62,0.00,,,0.01,WeatherCatV1.11B39,2013-07-05 17:46:00,
2013-07-05 11:51:00,71.1,60.0,29.83,West,274,0.0,3.0,68,0.00,,,0.01,WeatherCatV1.11B39,2013-07-05 17:51:00,
2013-07-05 11:56:00,70.6,59.9,29.82,WNW,300,0.0,3.0,69,0.00,,,0.01,WeatherCatV1.11B39,2013-07-05 17:56:00,
2013-07-05 12:01:00,70.2,60.7,29.82,WNW,300,1.0,3.0,72,0.00,,,0.01,WeatherCatV1.11B39,2013-07-05 18:01:00,
2013-07-05 12:06:00,70.0,59.3,29.82,WNW,300,0.0,0.0,69,0.00,,,0.01,WeatherCatV1.11B39,2013-07-05 18:06:00,
2013-07-05 12:11:00,69.6,60.5,29.82,WNW,300,0.0,0.0,73,0.00,,,0.01,WeatherCatV1.11B39,2013-07-05 18:11:00,
2013-07-05 12:16:00,69.3,59.5,29.82,WNW,300,0.0,0.0,71,0.00,,,0.01,WeatherCatV1.11B39,2013-07-05 18:16:00,
2013-07-05 12:21:00,69.4,59.6,29.82,WNW,300,0.0,0.0,71,0.00,,,0.01,WeatherCatV1.11B39,2013-07-05 18:21:00,
2013-07-05 12:26:00,69.7,58.2,29.82,WNW,300,0.0,1.0,67,0.00,,,0.01,WeatherCatV1.11B39,2013-07-05 18:26:00,
2013-07-05 12:31:00,70.4,58.1,29.81,WNW,300,0.0,0.0,65,0.00,,,0.01,WeatherCatV1.11B39,2013-07-05 18:31:00,
2013-07-05 12:36:00,71.1,59.2,29.81,WNW,300,0.0,0.0,66,0.00,,,0.01,WeatherCatV1.11B39,2013-07-05 18:36:00,
2013-07-05 12:41:00,72.0,58.3,29.80,WNW,300,0.0,1.0,62,0.00,,,0.01,WeatherCatV1.11B39,2013-07-05 18:41:00,
2013-07-05 12:46:00,72.8,56.7,29.80,WNW,300,0.0,0.0,57,0.00,,,0.01,WeatherCatV1.11B39,2013-07-05 18:46:00,
2013-07-05 12:51:00,73.6,56.9,29.80,SSW,213,0.0,1.0,56,0.00,,,0.01,WeatherCatV1.11B39,2013-07-05 18:51:00,
2013-07-05 12:56:00,74.6,59.3,29.79,SSW,213,0.0,1.0,59,0.00,,,0.01,WeatherCatV1.11B39,2013-07-05 18:56:00,
2013-07-05 13:01:00,75.4,57.1,29.79,SSW,213,0.0,1.0,53,0.00,,,0.01,WeatherCatV1.11B39,2013-07-05 19:01:00,
2013-07-05 13:06:00,76.2,59.3,29.79,SSW,212,0.0,3.0,56,0.00,,,0.01,WeatherCatV1.11B39,2013-07-05 19:06:00,
2013-07-05 13:11:00,77.0,58.0,29.79,North,11,0.0,5.0,52,0.00,,,0.01,WeatherCatV1.11B39,2013-07-05 19:11:00,
2013-07-05 13:16:00,77.5,57.4,29.79,NE,39,1.0,4.0,50,0.00,,,0.01,WeatherCatV1.11B39,2013-07-05 19:16:00,
2013-07-05 13:21:00,78.0,58.9,29.79,NE,41,0.0,0.0,52,0.00,,,0.01,WeatherCatV1.11B39,2013-07-05 19:21:00,
2013-07-05 13:26:00,78.3,57.0,29.78,NE,41,0.0,1.0,48,0.00,,,0.01,WeatherCatV1.11B39,2013-07-05 19:26:00,
2013-07-05 13:31:00,78.4,56.5,29.78,NE,51,0.0,1.0,47,0.00,,,0.01,WeatherCatV1.11B39,2013-07-05 19:31:00,
2013-07-05 13:36:00,78.6,58.9,29.77,NE,51,0.0,0.0,51,0.00,,,0.01,WeatherCatV1.11B39,2013-07-05 19:36:00,
2013-07-05 13:41:00,78.7,55.5,29.77,NE,51,0.0,1.0,45,0.00,,,0.01,WeatherCatV1.11B39,2013-07-05 19:41:00,
2013-07-05 13:46:00,79.0,55.8,29.77,NE,51,0.0,1.0,45,0.00,,,0.01,WeatherCatV1.11B39,2013-07-05 19:46:00,
2013-07-05 13:51:00,79.2,56.6,29.76,NE,51,0.0,1.0,46,0.00,,,0.01,WeatherCatV1.11B39,2013-07-05 19:51:00,
2013-07-05 13:56:00,79.5,55.7,29.76,NE,51,0.0,0.0,44,0.00,,,0.01,WeatherCatV1.11B39,2013-07-05 19:56:00,
2013-07-05 14:01:00,79.8,57.8,29.76,NE,50,1.0,1.0,47,0.00,,,0.01,WeatherCatV1.11B39,2013-07-05 20:01:00,
2013-07-05 14:06:00,80.2,59.3,29.75,West,280,1.0,5.0,49,0.00,,,0.01,WeatherCatV1.11B39,2013-07-05 20:06:00,
2013-07-05 14:11:00,80.5,53.2,29.75,WSW,252,5.0,11.0,39,0.00,,,0.01,WeatherCatV1.11B39,2013-07-05 20:11:00,
2013-07-05 14:16:00,81.2,54.6,29.76,WNW,302,9.0,9.0,40,0.00,,,0.01,WeatherCatV1.11B39,2013-07-05 20:16:00,
2013-07-05 14:21:00,81.8,53.0,29.76,WNW,300,6.0,12.0,37,0.00,,,0.01,WeatherCatV1.11B39,2013-07-05 20:21:00,
2013-07-05 14:26:00,82.4,54.9,29.75,WNW,294,10.0,14.0,39,0.00,,,0.01,WeatherCatV1.11B39,2013-07-05 20:26:00,
2013-07-05 14:31:00,83.0,53.3,29.75,WNW,296,8.0,9.0,36,0.00,,,0.01,WeatherCatV1.11B39,2013-07-05 20:31:00,
2013-07-05 14:36:00,83.6,55.3,29.75,WNW,284,2.0,5.0,38,0.00,,,0.01,WeatherCatV1.11B39,2013-07-05 20:36:00,
2013-07-05 14:41:00,84.1,54.2,29.75,WNW,290,3.0,11.0,36,0.00,,,0.01,WeatherCatV1.11B39,2013-07-05 20:41:00,
2013-07-05 14:46:00,84.5,53.0,29.75,WNW,286,5.0,7.0,34,0.00,,,0.01,WeatherCatV1.11B39,2013-07-05 20:46:00,
2013-07-05 14:51:00,85.0,52.6,29.75,WNW,302,4.0,8.0,33,0.00,,,0.01,WeatherCatV1.11B39,2013-07-05 20:51:00,
2013-07-05 14:56:00,85.5,52.2,29.75,WSW,244,4.0,12.0,32,0.00,,,0.01,WeatherCatV1.11B39,2013-07-05 20:56:00,
2013-07-05 15:01:00,85.8,54.2,29.75,West,265,8.0,12.0,34,0.00,,,0.01,WeatherCatV1.11B39,2013-07-05 21:01:00,
2013-07-05 15:06:00,85.9,51.7,29.74,WNW,297,7.0,9.0,31,0.00,,,0.01,WeatherCatV1.11B39,2013-07-05 21:06:00,
2013-07-05 15:11:00,86.0,52.7,29.74,WSW,249,2.0,7.0,32,0.00,,,0.01,WeatherCatV1.11B39,2013-07-05 21:11:00,
2013-07-05 15:16:00,86.6,52.3,29.74,West,281,12.0,12.0,31,0.00,,,0.01,WeatherCatV1.11B39,2013-07-05 21:16:00,
2013-07-05 15:21:00,87.1,51.9,29.74,WNW,283,8.0,12.0,30,0.00,,,0.01,WeatherCatV1.11B39,2013-07-05 21:21:00,
2013-07-05 15:26:00,87.4,52.1,29.74,SSE,160,2.0,12.0,30,0.00,,,0.01,WeatherCatV1.11B39,2013-07-05 21:26:00,
2013-07-05 15:31:00,87.0,54.4,29.73,NW,322,5.0,6.0,33,0.00,,,0.01,WeatherCatV1.11B39,2013-07-05 21:31:00,
2013-07-05 15:36:00,86.9,54.3,29.73,ENE,71,11.0,11.0,33,0.00,,,0.01,WeatherCatV1.11B39,2013-07-05 21:36:00,
2013-07-05 15:41:00,86.5,52.2,29.73,NNW,328,6.0,13.0,31,0.00,,,0.01,WeatherCatV1.11B39,2013-07-05 21:41:00,
2013-07-05 15:46:00,86.1,51.9,29.73,NNW,333,6.0,7.0,31,0.00,,,0.01,WeatherCatV1.11B39,2013-07-05 21:46:00,
2013-07-05 15:51:00,85.6,51.5,29.72,NNE,27,3.0,12.0,31,0.00,,,0.01,WeatherCatV1.11B39,2013-07-05 21:51:00,
2013-07-05 15:56:00,85.3,52.1,29.72,WNW,294,0.0,2.0,32,0.00,,,0.01,WeatherCatV1.11B39,2013-07-05 21:56:00,
2013-07-05 16:01:00,85.3,51.2,29.72,NNW,347,0.0,2.0,31,0.00,,,0.01,WeatherCatV1.11B39,2013-07-05 22:01:00,
2013-07-05 16:06:00,85.4,52.2,29.72,NNE,28,2.0,2.0,32,0.00,,,0.01,WeatherCatV1.11B39,2013-07-05 22:06:00,
2013-07-05 16:11:00,84.9,50.9,29.71,East,96,1.0,2.0,31,0.00,,,0.01,WeatherCatV1.11B39,2013-07-05 22:11:00,
2013-07-05 16:16:00,84.0,50.9,29.71,NE,39,0.0,3.0,32,0.00,,,0.01,WeatherCatV1.11B39,2013-07-05 22:16:00,
2013-07-05 16:21:00,83.4,53.6,29.71,NE,39,0.0,0.0,36,0.00,,,0.01,WeatherCatV1.11B39,2013-07-05 22:21:00,
2013-07-05 16:26:00,82.9,53.9,29.71,NW,310,0.0,1.0,37,0.00,,,0.01,WeatherCatV1.11B39,2013-07-05 22:26:00,
2013-07-05 16:31:00,82.9,57.4,29.71,NW,316,1.0,4.0,42,0.00,,,0.01,WeatherCatV1.11B39,2013-07-05 22:31:00,
2013-07-05 16:36:00,83.3,52.0,29.71,WNW,301,3.0,8.0,34,0.00,,,0.01,WeatherCatV1.11B39,2013-07-05 22:36:00,
2013-07-05 16:41:00,84.0,50.9,29.71,WNW,289,1.0,4.0,32,0.00,,,0.01,WeatherCatV1.11B39,2013-07-05 22:41:00,
2013-07-05 16:46:00,84.7,51.5,29.70,WNW,301,0.0,6.0,32,0.00,,,0.01,WeatherCatV1.11B39,2013-07-05 22:46:00,
2013-07-05 16:51:00,85.2,49.3,29.70,West,268,0.0,3.0,29,0.00,,,0.01,WeatherCatV1.11B39,2013-07-05 22:51:00,
2013-07-05 16:56:00,85.6,54.8,29.70,SSW,198,1.0,4.0,35,0.00,,,0.01,WeatherCatV1.11B39,2013-07-05 22:56:00,
2013-07-05 17:01:00,85.2,53.6,29.70,SSE,165,0.0,1.0,34,0.00,,,0.01,WeatherCatV1.11B39,2013-07-05 23:01:00,
2013-07-05 17:06:00,84.5,49.6,29.70,SSE,159,2.0,9.0,30,0.00,,,0.01,WeatherCatV1.11B39,2013-07-05 23:06:00,
2013-07-05 17:11:00,84.2,52.8,29.70,WNW,285,1.0,3.0,34,0.00,,,0.01,WeatherCatV1.11B39,2013-07-05 23:11:00,
2013-07-05 17:16:00,83.8,54.0,29.70,WNW,285,0.0,4.0,36,0.00,,,0.01,WeatherCatV1.11B39,2013-07-05 23:16:00,
2013-07-05 17:21:00,83.1,52.6,29.70,WNW,285,0.0,1.0,35,0.00,,,0.01,WeatherCatV1.11B39,2013-07-05 23:21:00,
2013-07-05 17:26:00,82.4,53.5,29.70,WNW,285,0.0,0.0,37,0.00,,,0.01,WeatherCatV1.11B39,2013-07-05 23:26:00,
2013-07-05 17:31:00,81.9,55.2,29.70,WNW,285,0.0,4.0,40,0.00,,,0.01,WeatherCatV1.11B39,2013-07-05 23:31:00,
2013-07-05 17:36:00,81.7,52.9,29.70,WNW,286,2.0,7.0,37,0.00,,,0.01,WeatherCatV1.11B39,2013-07-05 23:36:00,
2013-07-05 17:41:00,82.0,54.6,29.70,West,273,0.0,5.0,39,0.00,,,0.01,WeatherCatV1.11B39,2013-07-05 23:41:00,
2013-07-05 17:46:00,82.6,53.7,29.70,WNW,300,7.0,9.0,37,0.00,,,0.01,WeatherCatV1.11B39,2013-07-05 23:46:00,
2013-07-05 17:51:00,83.3,50.3,29.70,West,278,3.0,4.0,32,0.00,,,0.01,WeatherCatV1.11B39,2013-07-05 23:51:00,
2013-07-05 17:56:00,83.8,51.6,29.69,WNW,293,1.0,9.0,33,0.00,,,0.01,WeatherCatV1.11B39,2013-07-05 23:56:00,
2013-07-05 18:01:00,84.1,52.7,29.69,WNW,286,7.0,7.0,34,0.00,,,0.01,WeatherCatV1.11B39,2013-07-06 00:01:00,
2013-07-05 18:06:00,83.9,51.7,29.69,NNW,335,5.0,6.0,33,0.00,,,0.01,WeatherCatV1.11B39,2013-07-06 00:06:00,
2013-07-05 18:11:00,83.4,51.2,29.69,West,262,0.0,4.0,33,0.00,,,0.01,WeatherCatV1.11B39,2013-07-06 00:11:00,
2013-07-05 18:16:00,83.0,54.0,29.69,West,267,3.0,4.0,37,0.00,,,0.01,WeatherCatV1.11B39,2013-07-06 00:16:00,
2013-07-05 18:21:00,82.6,52.1,29.69,West,269,0.0,1.0,35,0.00,,,0.01,WeatherCatV1.11B39,2013-07-06 00:21:00,
2013-07-05 18:26:00,82.3,53.4,29.69,West,271,0.0,8.0,37,0.00,,,0.01,WeatherCatV1.11B39,2013-07-06 00:26:00,
2013-07-05 18:31:00,82.0,51.6,29.69,NW,304,3.0,8.0,35,0.00,,,0.01,WeatherCatV1.11B39,2013-07-06 00:31:00,
2013-07-05 18:36:00,82.1,53.2,29.69,West,260,0.0,2.0,37,0.00,,,0.01,WeatherCatV1.11B39,2013-07-06 00:36:00,
2013-07-05 18:41:00,81.9,49.9,29.68,WSW,244,0.0,8.0,33,0.00,,,0.01,WeatherCatV1.11B39,2013-07-06 00:41:00,
2013-07-05 18:46:00,81.9,51.5,29.69,West,260,0.0,5.0,35,0.00,,,0.01,WeatherCatV1.11B39,2013-07-06 00:46:00,
2013-07-05 18:51:00,81.7,52.1,29.69,WNW,290,0.0,8.0,36,0.00,,,0.01,WeatherCatV1.11B39,2013-07-06 00:51:00,
2013-07-05 18:56:00,81.3,51.0,29.69,WNW,290,0.0,6.0,35,0.00,,,0.01,WeatherCatV1.11B39,2013-07-06 00:56:00,
2013-07-05 19:01:00,81.1,53.1,29.68,WNW,290,0.0,3.0,38,0.00,,,0.01,WeatherCatV1.11B39,2013-07-06 01:01:00,
2013-07-05 19:06:00,80.7,52.7,29.68,WNW,289,0.0,1.0,38,0.00,,,0.01,WeatherCatV1.11B39,2013-07-06 01:06:00,
2013-07-05 19:11:00,80.4,52.4,29.68,West,260,2.0,4.0,38,0.00,,,0.01,WeatherCatV1.11B39,2013-07-06 01:11:00,
2013-07-05 19:16:00,80.1,53.6,29.68,West,260,0.0,0.0,40,0.00,,,0.01,WeatherCatV1.11B39,2013-07-06 01:16:00,
2013-07-05 19:21:00,79.8,54.6,29.67,West,260,0.0,0.0,42,0.00,,,0.01,WeatherCatV1.11B39,2013-07-06 01:21:00,
2013-07-05 19:26:00,79.3,55.5,29.68,West,260,0.0,1.0,44,0.00,,,0.01,WeatherCatV1.11B39,2013-07-06 01:26:00,
2013-07-05 19:31:00,78.8,55.6,29.68,West,260,0.0,0.0,45,0.00,,,0.01,WeatherCatV1.11B39,2013-07-06 01:31:00,
2013-07-05 19:36:00,78.3,55.8,29.68,West,260,0.0,3.0,46,0.00,,,0.01,WeatherCatV1.11B39,2013-07-06 01:36:00,
2013-07-05 19:41:00,77.6,56.9,29.68,West,260,0.0,0.0,49,0.00,,,0.01,WeatherCatV1.11B39,2013-07-06 01:41:00,
2013-07-05 19:46:00,76.8,55.0,29.67,South,185,1.0,1.0,47,0.00,,,0.01,WeatherCatV1.11B39,2013-07-06 01:46:00,
2013-07-05 19:51:00,76.3,54.0,29.68,South,185,0.0,0.0,46,0.00,,,0.01,WeatherCatV1.11B39,2013-07-06 01:51:00,
2013-07-05 19:56:00,75.9,55.3,29.68,South,185,1.0,1.0,49,0.00,,,0.01,WeatherCatV1.11B39,2013-07-06 01:56:00,
2013-07-05 20:01:00,75.5,55.0,29.68,South,185,0.0,2.0,49,0.00,,,0.01,WeatherCatV1.11B39,2013-07-06 02:01:00,
2013-07-05 20:06:00,75.2,52.4,29.68,South,185,1.0,1.0,45,0.00,,,0.01,WeatherCatV1.11B39,2013-07-06 02:06:00,
2013-07-05 20:11:00,75.1,50.4,29.68,SSW,202,0.0,2.0,42,0.00,,,0.01,WeatherCatV1.11B39,2013-07-06 02:11:00,
2013-07-05 20:16:00,75.5,49.5,29.68,WSW,257,0.0,7.0,40,0.00,,,0.01,WeatherCatV1.11B39,2013-07-06 02:16:00,
2013-07-05 20:21:00,75.8,49.1,29.69,SW,219,2.0,5.0,39,0.00,,,0.01,WeatherCatV1.11B39,2013-07-06 02:21:00,
2013-07-05 20:26:00,76.0,50.6,29.69,SW,219,0.0,0.0,41,0.00,,,0.01,WeatherCatV1.11B39,2013-07-06 02:26:00,
2013-07-05 20:31:00,76.0,53.1,29.69,SW,219,0.0,1.0,45,0.00,,,0.01,WeatherCatV1.11B39,2013-07-06 02:31:00,
2013-07-05 20:36:00,75.7,55.2,29.69,SW,219,0.0,0.0,49,0.00,,,0.01,WeatherCatV1.11B39,2013-07-06 02:36:00,
2013-07-05 20:41:00,75.1,55.7,29.70,SW,219,0.0,1.0,51,0.00,,,0.01,WeatherCatV1.11B39,2013-07-06 02:41:00,
2013-07-05 20:46:00,74.4,55.6,29.70,SSW,213,0.0,2.0,52,0.00,,,0.01,WeatherCatV1.11B39,2013-07-06 02:46:00,
2013-07-05 20:51:00,73.9,53.5,29.70,SSW,213,0.0,0.0,49,0.00,,,0.01,WeatherCatV1.11B39,2013-07-06 02:51:00,
2013-07-05 20:56:00,73.5,54.2,29.70,SSW,213,0.0,0.0,51,0.00,,,0.01,WeatherCatV1.11B39,2013-07-06 02:56:00,
2013-07-05 21:01:00,73.2,54.5,29.71,SSW,213,0.0,0.0,52,0.00,,,0.01,WeatherCatV1.11B39,2013-07-06 03:01:00,
2013-07-05 21:06:00,72.9,55.8,29.71,SSW,213,0.0,0.0,55,0.00,,,0.01,WeatherCatV1.11B39,2013-07-06 03:06:00,
2013-07-05 21:11:00,72.4,56.8,29.71,SSW,213,0.0,0.0,58,0.00,,,0.01,WeatherCatV1.11B39,2013-07-06 03:11:00,
2013-07-05 21:16:00,71.8,53.7,29.71,SSW,213,0.0,0.0,53,0.00,,,0.01,WeatherCatV1.11B39,2013-07-06 03:16:00,
2013-07-05 21:21:00,71.4,53.4,29.72,SSW,213,0.0,0.0,53,0.00,,,0.01,WeatherCatV1.11B39,2013-07-06 03:21:00,
2013-07-05 21:26:00,71.1,55.1,29.72,SSW,213,0.0,0.0,57,0.00,,,0.01,WeatherCatV1.11B39,2013-07-06 03:26:00,
2013-07-05 21:31:00,70.8,53.8,29.72,SSW,213,0.0,0.0,55,0.00,,,0.01,WeatherCatV1.11B39,2013-07-06 03:31:00,
2013-07-05 21:36:00,70.4,55.4,29.73,SSW,213,0.0,0.0,59,0.00,,,0.01,WeatherCatV1.11B39,2013-07-06 03:36:00,
2013-07-05 21:41:00,70.0,57.7,29.73,SSW,213,0.0,1.0,65,0.00,,,0.01,WeatherCatV1.11B39,2013-07-06 03:41:00,
2013-07-05 21:46:00,69.3,54.8,29.73,SSW,213,0.0,1.0,60,0.00,,,0.01,WeatherCatV1.11B39,2013-07-06 03:46:00,
2013-07-05 21:51:00,69.1,54.2,29.74,SSW,213,0.0,0.0,59,0.00,,,0.01,WeatherCatV1.11B39,2013-07-06 03:51:00,
2013-07-05 21:56:00,69.0,54.5,29.74,SSW,213,0.0,0.0,60,0.00,,,0.01,WeatherCatV1.11B39,2013-07-06 03:56:00,
2013-07-05 22:01:00,69.0,54.5,29.74,SSW,213,0.0,0.0,60,0.00,,,0.01,WeatherCatV1.11B39,2013-07-06 04:01:00,
2013-07-05 22:06:00,69.0,56.3,29.74,SSW,213,0.0,0.0,64,0.00,,,0.01,WeatherCatV1.11B39,2013-07-06 04:06:00,
2013-07-05 22:11:00,68.9,55.8,29.74,SSW,213,0.0,0.0,63,0.00,,,0.01,WeatherCatV1.11B39,2013-07-06 04:11:00,
2013-07-05 22:16:00,68.7,55.1,29.74,SSW,213,0.0,0.0,62,0.00,,,0.01,WeatherCatV1.11B39,2013-07-06 04:16:00,
2013-07-05 22:21:00,68.5,56.7,29.74,SSW,213,0.0,0.0,66,0.00,,,0.01,WeatherCatV1.11B39,2013-07-06 04:21:00,
2013-07-05 22:26:00,68.1,55.9,29.74,SSW,213,0.0,0.0,65,0.00,,,0.01,WeatherCatV1.11B39,2013-07-06 04:26:00,
2013-07-05 22:31:00,67.8,55.6,29.75,SSW,213,0.0,0.0,65,0.00,,,0.01,WeatherCatV1.11B39,2013-07-06 04:31:00,
2013-07-05 22:36:00,67.6,55.8,29.74,SSW,213,0.0,0.0,66,0.00,,,0.01,WeatherCatV1.11B39,2013-07-06 04:36:00,
2013-07-05 22:41:00,67.5,56.6,29.74,SSW,213,0.0,0.0,68,0.00,,,0.01,WeatherCatV1.11B39,2013-07-06 04:41:00,
2013-07-05 22:46:00,67.3,54.7,29.74,SSW,213,0.0,0.0,64,0.00,,,0.01,WeatherCatV1.11B39,2013-07-06 04:46:00,
2013-07-05 22:51:00,67.3,57.2,29.75,SSW,213,0.0,0.0,70,0.00,,,0.01,WeatherCatV1.11B39,2013-07-06 04:51:00,
2013-07-05 22:56:00,67.2,55.9,29.75,SSW,213,0.0,0.0,67,0.00,,,0.01,WeatherCatV1.11B39,2013-07-06 04:56:00,
2013-07-05 23:01:00,67.0,57.7,29.76,SSW,213,0.0,0.0,72,0.00,,,0.01,WeatherCatV1.11B39,2013-07-06 05:01:00,
2013-07-05 23:06:00,67.0,54.8,29.77,WSW,257,6.0,10.0,65,0.00,,,0.01,WeatherCatV1.11B39,2013-07-06 05:06:00,
2013-07-05 23:11:00,68.1,52.8,29.77,West,274,7.0,10.0,58,0.00,,,0.01,WeatherCatV1.11B39,2013-07-06 05:11:00,
2013-07-05 23:16:00,69.4,51.0,29.76,SW,227,8.0,15.0,52,0.00,,,0.01,WeatherCatV1.11B39,2013-07-06 05:16:00,
2013-07-05 23:21:00,70.2,50.7,29.76,WNW,296,5.0,13.0,50,0.00,,,0.01,WeatherCatV1.11B39,2013-07-06 05:21:00,
2013-07-05 23:26:00,70.4,49.2,29.76,SSW,205,1.0,4.0,47,0.00,,,0.01,WeatherCatV1.11B39,2013-07-06 05:26:00,
2013-07-05 23:31:00,70.6,53.6,29.76,WNW,282,0.0,1.0,55,0.00,,,0.01,WeatherCatV1.11B39,2013-07-06 05:31:00,
2013-07-05 23:36:00,70.2,52.3,29.77,ENE,71,0.0,1.0,53,0.00,,,0.01,WeatherCatV1.11B39,2013-07-06 05:36:00,
2013-07-05 23:41:00,69.7,52.8,29.78,WNW,298,7.0,10.0,55,0.00,,,0.01,WeatherCatV1.11B39,2013-07-06 05:41:00,
2013-07-05 23:46:00,69.2,51.3,29.78,SSW,207,0.0,3.0,53,0.00,,,0.01,WeatherCatV1.11B39,2013-07-06 05:46:00,
2013-07-05 23:51:00,68.8,52.0,29.77,SSW,207,1.0,1.0,55,0.00,,,0.01,WeatherCatV1.11B39,2013-07-06 05:51:00,
2013-07-05 23:56:00,68.5,52.2,29.78,SSW,207,0.0,2.0,56,0.00,,,0.01,WeatherCatV1.11B39,2013-07-06 05:56:00,